Time,TemperatureF,DewpointF,PressureIn,WindDirection,WindDirectionDegrees,WindSpeedMPH,WindSpeedGustMPH,Humidity,HourlyPrecipIn,Conditions,Clouds,dailyrainin,SoftwareType,DateUTC
2013-07-10 08:32:00,74.4,64.4,29.93,NNE,23,0.0,0.0,71,0.00,,,0.00,WUHU216HW,2013-07-10 06:32:00,
2013-07-10 08:37:00,74.4,64.1,29.94,SE,135,0.0,0.0,70,0.00,,,0.00,WUHU216HW,2013-07-10 06:37:00,
2013-07-10 08:42:00,74.4,64.3,29.94,SE,135,0.0,0.0,71,0.00,,,0.00,WUHU216HW,2013-07-10 06:42:00,
2013-07-10 08:47:00,74.1,63.7,29.95,SE,135,0.0,0.0,70,0.00,,,0.00,WUHU216HW,2013-07-10 06:47:00,
2013-07-10 08:52:00,74.4,64.4,29.95,SSE,158,0.0,0.0,71,0.00,,,0.00,WUHU216HW,2013-07-10 06:52:00,
2013-07-10 08:57:00,74.8,64.4,29.96,ENE,68,0.0,0.0,70,0.00,,,0.00,WUHU216HW,2013-07-10 06:57:00,
2013-07-10 09:02:00,75.0,64.1,29.96,SE,135,1.3,1.3,69,0.00,,,0.00,WUHU216HW,2013-07-10 07:02:00,
2013-07-10 09:07:00,75.3,64.0,29.96,ENE,68,0.0,1.3,68,0.00,,,0.00,WUHU216HW,2013-07-10 07:07:00,
2013-07-10 09:12:00,75.9,64.1,29.97,SE,135,1.5,1.5,67,0.00,,,0.00,WUHU216HW,2013-07-10 07:12:00,
2013-07-10 09:17:00,76.2,64.0,29.98,East,90,0.0,1.5,66,0.00,,,0.00,WUHU216HW,2013-07-10 07:17:00,
2013-07-10 12:47:00,82.9,62.9,29.92,ENE,68,1.1,1.1,51,0.00,,,0.00,WUHU216HW,2013-07-10 10:47:00,
2013-07-10 12:57:00,82.2,62.2,29.93,North,0,0.6,5.3,51,0.00,,,0.00,WUHU216HW,2013-07-10 10:57:00,
2013-07-10 13:02:00,81.3,61.9,29.93,NNE,23,0.0,3.3,52,0.00,,,0.00,WUHU216HW,2013-07-10 11:02:00,
2013-07-10 13:07:00,80.9,61.6,29.94,NNW,338,0.0,5.1,52,0.00,,,0.00,WUHU216HW,2013-07-10 11:07:00,
2013-07-10 14:39:00,81.1,62.1,29.90,NE,45,0.0,0.0,53,0.00,,,0.00,WUHU216HW,2013-07-10 12:39:00,
2013-07-10 14:49:00,83.6,64.1,29.91,North,0,0.0,1.5,52,0.00,,,0.00,WUHU216HW,2013-07-10 12:49:00,
2013-07-10 14:54:00,85.1,64.4,29.91,NE,45,0.0,1.7,50,0.00,,,0.00,WUHU216HW,2013-07-10 12:54:00,
2013-07-10 14:59:00,84.3,64.0,29.91,NNW,338,0.0,1.7,50,0.00,,,0.00,WUHU216HW,2013-07-10 12:59:00,
2013-07-10 15:04:00,83.4,62.9,29.91,NW,315,0.0,0.0,50,0.00,,,0.00,WUHU216HW,2013-07-10 13:04:00,
2013-07-10 15:15:00,83.8,63.3,29.91,NW,315,1.5,1.5,50,0.00,,,0.00,WUHU216HW,2013-07-10 13:15:00,
2013-07-10 18:27:00,83.3,61.5,29.88,NNW,338,1.3,1.3,48,0.00,,,0.00,WUHU216HW,2013-07-10 16:27:00,
2013-07-10 18:37:00,83.4,63.4,29.89,NW,315,0.0,3.1,51,0.00,,,0.00,WUHU216HW,2013-07-10 16:37:00,
2013-07-10 18:46:00,82.9,63.4,29.89,NW,315,0.0,2.0,52,0.00,,,0.00,WUHU216HW,2013-07-10 16:46:00,
2013-07-10 19:15:00,77.9,60.3,29.89,West,270,0.0,0.0,55,0.00,,,0.00,WUHU216HW,2013-07-10 17:15:00,
2013-07-10 19:20:00,76.8,59.8,29.88,WNW,293,0.0,0.0,56,0.00,,,0.00,WUHU216HW,2013-07-10 17:20:00,
2013-07-10 19:25:00,76.2,59.9,29.88,WNW,293,0.0,2.0,57,0.00,,,0.00,WUHU216HW,2013-07-10 17:25:00,
2013-07-10 20:43:00,69.2,57.9,29.86,NNW,338,0.0,0.0,67,0.00,,,0.00,WUHU216HW,2013-07-10 18:43:00,
2013-07-10 20:48:00,68.7,57.7,29.86,West,270,0.0,0.0,68,0.00,,,0.00,WUHU216HW,2013-07-10 18:48:00,
2013-07-10 20:53:00,68.5,56.6,29.86,West,270,0.8,0.8,66,0.00,,,0.00,WUHU216HW,2013-07-10 18:53:00,
2013-07-10 20:58:00,68.7,56.4,29.86,West,270,0.0,1.3,65,0.00,,,0.00,WUHU216HW,2013-07-10 18:58:00,
2013-07-10 21:03:00,68.5,56.2,29.86,West,270,0.8,1.3,65,0.00,,,0.00,WUHU216HW,2013-07-10 19:03:00,
2013-07-10 21:08:00,68.1,56.3,29.86,West,270,0.6,3.1,66,0.00,,,0.00,WUHU216HW,2013-07-10 19:08:00,
2013-07-10 21:13:00,68.5,55.8,29.86,West,270,2.4,4.4,64,0.00,,,0.00,WUHU216HW,2013-07-10 19:13:00,
2013-07-10 21:18:00,69.6,56.0,29.86,West,270,3.1,4.4,62,0.00,,,0.00,WUHU216HW,2013-07-10 19:18:00,
2013-07-10 21:33:00,71.4,56.6,29.86,WSW,248,3.1,3.1,60,0.00,,,0.00,WUHU216HW,2013-07-10 19:33:00,
2013-07-10 21:42:00,72.1,57.0,29.88,West,270,2.6,4.9,59,0.00,,,0.00,WUHU216HW,2013-07-10 19:42:00,
2013-07-10 21:58:00,72.3,56.6,29.89,West,270,2.4,2.4,58,0.00,,,0.00,WUHU216HW,2013-07-10 19:58:00,
2013-07-10 23:36:00,66.2,55.2,29.90,West,270,5.1,5.1,68,0.00,,,0.00,WUHU216HW,2013-07-10 21:36:00,
2013-07-10 23:46:00,67.8,56.4,29.90,NW,315,0.0,4.4,67,0.00,,,0.00,WUHU216HW,2013-07-10 21:46:00,
2013-07-10 23:51:00,67.8,56.8,29.91,WNW,293,1.7,1.7,68,0.00,,,0.00,WUHU216HW,2013-07-10 21:51:00,
2013-07-10 23:56:00,68.5,56.5,29.91,West,270,4.0,4.0,65,0.00,,,0.00,WUHU216HW,2013-07-10 21:56:00,